Location: Holyhead Bay
(53.3667°N, 4.6667°W)
Time: 19:07:32
(UTC+00:00)

Cosmos 2219 Rocket - Pass Details

Date: 24 November 2020
Orbit: 829 x 845 km, 71.0° (Epoch: 16 January)

Event Time Altitude Azimuth Distance (km) Brightness Sun altitude
Rises 19:18:04 0° 259° (W) 3,394 6.6 -27.3°
Reaches altitude 10° 19:21:00 10° 274° (W) 2,459 5.6 -27.7°
Maximum altitude 19:25:30 24° 327° (NNW) 1,685 4.1 -28.4°
Enters shadow 19:28:06 18° 4° (N) 1,980 4.1 -28.7°
